Weather in Juhnov

Russia / Kaluga Oblast     54°44′39″N   35°14′19″E
temp.,
°C
wind,
m/s
gust,
m/s
humid.,
%
clouds,
%
prec.,
mm/h
press.,
hPa
HPBL,
m
23 september, thu
thu2300:00+5nne1398100 0.6 1013157
03:00+6ene1399100 0.9 1013164
06:00+7ese269991 0.2 1012216
09:00+8se2392100 0.3 1012331
12:00+9s1285100 0.5 1012452
15:00+11ssw127785 0.8 1011635
18:00+9wsw118699 0.6 101011
21:00+7wsw3693100 0.6 1010271
24 september, fri
fri2400:00+6s269295 0.0 1009356
03:00+3s3895100 0.0 1007211
06:00+5sse41192100 0.0 1004609
09:00+6sse61288100 0.0 1002859
12:00+7sse61389100 0.4 10011128
15:00+7sse71392100 1.8 9991230
18:00+7sse61294100 0.6 999829
21:00+7sse51095100 0.9 1000686
25 september, sat
sat2500:00+7se2695100 0.0 1002247
03:00+7ese2697100 0.0 1003257
06:00+7se2698100 0.0 1004339
09:00+8sse2690100 0.0 1006411
12:00+11ssw347285 0.1 1006816
15:00+12ssw356788 0.1 10071181
18:00+10ssw2679100 0.1 1007265
21:00+9sw2692100 0.1 1008305
26 september, sun
sun2600:00+8sw2597100 0.1 1008268
03:00+8w1499100 2.4 1008231
06:00+8nw3897100 1.4 1009501
09:00+8nw41094100 1.4 1010698
12:00+9nw5108789 0.3 1012857
15:00+10nnw51081100 0.8 10141356
18:00+8nnw41089100 0.3 10161263
21:00+8nnw41190100 0.4 1017645
27 september, mon
mon2700:00+8nnw4109287 0.1 1018533
03:00+7nnw3994100 0.2 1020466
06:00+8n3896100 0.1 1021497
09:00+9n3692100 0.2 1023418
12:00+11nne357886 0.0 1024810
15:00+11nne347389 0.2 1025870
18:00+10n2582100 0.1 1026215
21:00+7nne269416 0.1 1027166